QPF
0.00 0.00 0.00 0.00 0.00 0.00 0.00 0.00 0.00 0.00 0.01 0.01 0.01 0.01 0.01 0.02 0.03 0.03 0.03 0.03 0.04 0.05 0.07 0.08 0.08 0.10 0.11 0.11 0.11 0.13 0.15 0.15 0.14 0.11 0.11 0.13 0.11 0.06 0.04 0.03 0.02 0.01 0.01
0.00 0.00 0.00 0.00 0.00 0.00 0.00 0.00 0.00 0.00 0.01 0.01 0.01 0.01 0.01 0.02 0.03 0.03 0.02 0.03 0.04 0.04 0.05 0.06 0.07 0.08 0.09 0.09 0.10 0.11 0.11 0.12 0.15 0.15 0.14 0.15 0.13 0.08 0.05 0.03 0.02 0.01 0.01
0.00 0.00 0.00 0.00 0.00 0.00 0.00 0.00 0.00 0.00 0.01 0.01 0.01 0.01 0.01 0.01 0.02 0.03 0.03 0.03 0.04 0.04 0.04 0.05 0.04 0.05 0.08 0.08 0.08 0.09 0.10 0.11 0.13 0.14 0.16 0.16 0.15 0.12 0.08 0.05 0.03 0.02 0.01
0.00 0.00 0.00 0.00 0.00 0.00 0.00 0.00 0.00 0.01 0.01 0.01 0.01 0.01 0.02 0.02 0.02 0.03 0.03 0.04 0.05 0.04 0.04 0.04 0.03 0.03 0.03 0.06 0.07 0.08 0.09 0.10 0.13 0.14 0.15 0.18 0.17 0.17 0.14 0.09 0.05 0.02 0.01
0.00 0.00 0.00 0.00 0.00 0.00 0.00 0.00 0.01 0.01 0.01 0.01 0.01 0.01 0.01 0.01 0.02 0.02 0.03 0.04 0.04 0.05 0.04 0.04 0.03 0.02 0.02 0.02 0.03 0.06 0.07 0.08 0.10 0.13 0.14 0.18 0.17 0.17 0.14 0.10 0.09 0.05 0.02
0.00 0.00 0.00 0.00 0.00 0.00 0.00 0.00 0.01 0.01 0.01 0.01 0.01 0.02 0.02 0.02 0.02 0.02 0.03 0.04 0.04 0.04 0.04 0.04 0.03 0.03 0.02 0.01 0.01 0.02 0.04 0.06 0.07 0.09 0.11 0.13 0.17 0.14 0.13 0.13 0.11 0.08 0.04
0.00 0.00 0.00 0.00 0.00 0.00 0.00 0.00 0.00 0.01 0.01 0.01 0.01 0.02 0.01 0.02 0.03 0.02 0.02 0.03 0.04 0.04 0.04 0.03 0.03 0.02 0.02 0.01 0.01 0.01 0.01 0.03 0.04 0.06 0.08 0.10 0.13 0.15 0.13 0.11 0.10 0.08 0.06
0.00 0.00 0.00 0.00 0.00 0.00 0.00 0.00 0.01 0.01 0.01 0.01 0.01 0.01 0.01 0.01 0.02 0.03 0.02 0.02 0.03 0.04 0.04 0.04 0.03 0.02 0.01 0.01 0.01 0.01 0.01 0.01 0.01 0.03 0.05 0.08 0.11 0.12 0.12 0.11 0.10 0.09 0.07
0.00 0.00 0.00 0.00 0.00 0.00 0.01 0.01 0.01 0.01 0.01 0.01 0.01 0.01 0.01 0.01 0.02 0.03 0.02 0.02 0.02 0.03 0.04 0.05 0.04 0.02 0.01 0.02 0.01 0.01 0.01 0.01 0.01 0.01 0.02 0.04 0.08 0.12 0.14 0.12 0.10 0.08 0.07
0.00 0.00 0.00 0.00 0.00 0.01 0.01 0.01 0.01 0.01 0.01 0.01 0.01 0.02 0.02 0.02 0.03 0.03 0.02 0.02 0.02 0.02 0.04 0.05 0.04 0.03 0.01 0.01 0.01 0.01 0.01 0.01 0.01 0.01 0.01 0.02 0.04 0.09 0.12 0.13 0.10 0.07 0.05
0.00 0.00 0.00 0.01 0.01 0.01 0.01 0.01 0.01 0.02 0.02 0.02 0.02 0.02 0.02 0.02 0.02 0.02 0.02 0.01 0.01 0.02 0.02 0.04 0.04 0.02 0.01 0.01 0.01 0.01 0.01 0.01 0.02 0.02 0.02 0.02 0.02 0.05 0.09 0.11 0.12 0.08 0.06
0.00 0.00 0.00 0.01 0.00 0.00 0.01 0.01 0.01 0.02 0.02 0.02 0.02 0.02 0.02 0.01 0.01 0.02 0.02 0.01 0.01 0.01 0.02 0.03 0.03 0.02 0.01 0.01 0.01 0.01 0.02 0.02 0.02 0.02 0.02 0.02 0.02 0.03 0.06 0.09 0.09 0.10 0.09
0.00 0.00 0.01 0.01 0.01 0.01 0.01 0.01 0.01 0.01 0.02 0.02 0.02 0.02 0.02 0.01 0.01 0.01 0.01 0.01 0.00 0.01 0.01 0.03 0.02 0.02 0.02 0.01 0.01 0.01 0.01 0.01 0.01 0.01 0.02 0.02 0.02 0.03 0.05 0.08 0.08 0.08 0.09
0.00 0.00 0.01 0.01 0.01 0.01 0.01 0.01 0.01 0.01 0.01 0.01 0.01 0.02 0.02 0.01 0.01 0.01 0.01 0.01 0.00 0.01 0.01 0.02 0.01 0.02 0.02 0.02 0.01 0.01 0.01 0.01 0.01 0.01 0.01 0.02 0.03 0.04 0.06 0.08 0.09 0.07 0.07
0.00 0.01 0.01 0.01 0.01 0.01 0.01 0.01 0.01 0.01 0.01 0.01 0.01 0.01 0.01 0.01 0.01 0.01 0.01 0.01 0.01 0.01 0.01 0.01 0.01 0.02 0.02 0.02 0.02 0.02 0.01 0.01 0.01 0.01 0.02 0.02 0.03 0.04 0.06 0.09 0.09 0.08 0.06
0.01 0.01 0.00 0.01 0.01 0.01 0.01 0.01 0.01 0.01 0.00 0.01 0.01 0.01 0.01 0.01 0.01 0.01 0.01 0.02 0.02 0.01 0.01 0.02 0.02 0.01 0.02 0.02 0.02 0.02 0.01 0.01 0.01 0.01 0.02 0.03 0.04 0.04 0.06 0.09 0.10 0.09 0.06
0.01 0.01 0.01 0.00 0.01 0.01 0.01 0.02 0.02 0.01 0.01 0.01 0.01 0.01 0.01 0.01 0.01 0.01 0.01 0.02 0.02 0.01 0.01 0.01 0.01 0.01 0.02 0.03 0.02 0.02 0.02 0.01 0.01 0.01 0.02 0.03 0.05 0.05 0.06 0.08 0.10 0.10 0.07
0.01 0.01 0.01 0.01 0.01 0.01 0.01 0.02 0.02 0.02 0.02 0.01 0.01 0.01 0.01 0.00 0.00 0.00 0.00 0.01 0.01 0.01 0.01 0.02 0.02 0.02 0.02 0.03 0.02 0.02 0.02 0.02 0.03 0.03 0.03 0.04 0.06 0.06 0.06 0.07 0.09 0.11 0.09
0.00 0.01 0.00 0.01 0.01 0.01 0.01 0.01 0.02 0.02 0.02 0.02 0.02 0.01 0.01 0.01 0.01 0.01 0.00 0.01 0.01 0.02 0.02 0.02 0.02 0.02 0.02 0.02 0.02 0.02 0.03 0.03 0.04 0.04 0.04 0.05 0.06 0.09 0.08 0.07 0.09 0.12 0.11
0.01 0.01 0.01 0.01 0.01 0.01 0.01 0.01 0.02 0.02 0.02 0.02 0.02 0.02 0.02 0.02 0.02 0.02 0.01 0.01 0.02 0.02 0.02 0.02 0.02 0.02 0.02 0.02 0.03 0.03 0.03 0.03 0.05 0.05 0.04 0.04 0.06 0.10 0.10 0.07 0.08 0.10 0.09
0.01 0.01 0.00 0.01 0.01 0.01 0.01 0.01 0.01 0.02 0.02 0.01 0.01 0.02 0.02 0.03 0.03 0.04 0.04 0.04 0.03 0.03 0.04 0.05 0.05 0.04 0.03 0.03 0.03 0.04 0.05 0.05 0.06 0.05 0.05 0.04 0.07 0.12 0.11 0.08 0.09 0.09 0.09
0.00 0.01 0.00 0.00 0.01 0.01 0.01 0.01 0.01 0.02 0.01 0.01 0.01 0.02 0.03 0.03 0.03 0.05 0.06 0.05 0.05 0.05 0.05 0.05 0.05 0.05 0.04 0.04 0.05 0.07 0.07 0.06 0.05 0.05 0.05 0.05 0.08 0.12 0.12 0.11 0.11 0.09 0.09
0.00 0.00 0.00 0.00 0.00 0.01 0.01 0.01 0.01 0.01 0.01 0.01 0.02 0.02 0.03 0.03 0.04 0.06 0.07 0.07 0.06 0.05 0.05 0.05 0.06 0.06 0.06 0.06 0.06 0.07 0.06 0.05 0.05 0.05 0.05 0.06 0.09 0.13 0.13 0.12 0.13 0.12 0.09
0.00 0.00 0.01 0.00 0.00 0.00 0.01 0.01 0.01 0.01 0.01 0.02 0.02 0.03 0.03 0.03 0.04 0.04 0.05 0.06 0.06 0.05 0.04 0.04 0.05 0.07 0.06 0.05 0.05 0.05 0.05 0.04 0.04 0.05 0.05 0.06 0.08 0.10 0.10 0.11 0.12 0.14 0.12
0.00 0.00 0.00 0.01 0.00 0.00 0.00 0.01 0.01 0.01 0.01 0.01 0.01 0.03 0.04 0.04 0.03 0.03 0.02 0.03 0.04 0.05 0.05 0.05 0.04 0.05 0.04 0.03 0.03 0.03 0.04 0.05 0.05 0.05 0.05 0.06 0.07 0.09 0.09 0.09 0.10 0.13 0.12
0.00 0.00 0.00 0.00 0.00 0.00 0.00 0.01 0.01 0.01 0.01 0.01 0.01 0.02 0.03 0.03 0.03 0.03 0.02 0.03 0.03 0.04 0.05 0.04 0.04 0.04 0.03 0.03 0.02 0.02 0.03 0.05 0.06 0.06 0.06 0.06 0.07 0.09 0.10 0.09 0.09 0.11 0.11
MSLP
1013.08 1013.04 1013.04 1013.03 1012.95 1012.78 1012.49 1012.10 1011.63 1011.14 1010.65 1010.19 1009.78 1009.42 1009.10 1008.80 1008.51 1008.21 1007.91 1007.63 1007.37 1007.17 1007.03 1006.96 1006.96 1007.03 1007.14 1007.28 1007.43 1007.59 1007.75 1007.90 1008.06 1008.23 1008.41 1008.60 1008.80 1009.02 1009.26 1009.52 1009.81 1010.13 1010.51
1013.07 1012.95 1012.87 1012.77 1012.62 1012.39 1012.08 1011.69 1011.25 1010.78 1010.31 1009.86 1009.44 1009.06 1008.70 1008.37 1008.04 1007.73 1007.45 1007.21 1007.01 1006.89 1006.85 1006.87 1006.96 1007.09 1007.25 1007.42 1007.59 1007.75 1007.91 1008.08 1008.25 1008.43 1008.63 1008.84 1009.06 1009.29 1009.51 1009.74 1009.97 1010.23 1010.51
1013.05 1012.87 1012.70 1012.52 1012.28 1011.99 1011.63 1011.22 1010.77 1010.31 1009.85 1009.41 1008.98 1008.58 1008.19 1007.82 1007.48 1007.16 1006.89 1006.69 1006.56 1006.51 1006.55 1006.65 1006.81 1007.01 1007.22 1007.42 1007.61 1007.80 1007.98 1008.17 1008.37 1008.59 1008.83 1009.09 1009.34 1009.59 1009.81 1010.02 1010.21 1010.39 1010.60
1013.02 1012.78 1012.52 1012.24 1011.91 1011.54 1011.12 1010.67 1010.20 1009.73 1009.27 1008.82 1008.39 1007.97 1007.56 1007.18 1006.82 1006.52 1006.27 1006.11 1006.04 1006.06 1006.16 1006.34 1006.57 1006.82 1007.06 1007.30 1007.52 1007.73 1007.94 1008.16 1008.40 1008.67 1008.96 1009.27 1009.56 1009.84 1010.08 1010.28 1010.44 1010.57 1010.70
1012.94 1012.64 1012.30 1011.91 1011.49 1011.02 1010.53 1010.03 1009.53 1009.05 1008.58 1008.12 1007.69 1007.26 1006.86 1006.48 1006.13 1005.85 1005.64 1005.52 1005.51 1005.59 1005.77 1006.01 1006.28 1006.57 1006.85 1007.11 1007.34 1007.57 1007.79 1008.04 1008.31 1008.62 1008.96 1009.31 1009.65 1009.96 1010.23 1010.43 1010.58 1010.68 1010.76
1012.81 1012.44 1012.01 1011.53 1011.01 1010.46 1009.90 1009.35 1008.82 1008.31 1007.83 1007.38 1006.95 1006.54 1006.15 1005.79 1005.47 1005.22 1005.06 1005.00 1005.04 1005.19 1005.41 1005.70 1006.01 1006.33 1006.62 1006.89 1007.13 1007.35 1007.58 1007.83 1008.11 1008.44 1008.80 1009.19 1009.56 1009.90 1010.19 1010.41 1010.57 1010.67 1010.73
1012.61 1012.17 1011.66 1011.10 1010.49 1009.87 1009.26 1008.66 1008.11 1007.59 1007.12 1006.68 1006.27 1005.88 1005.52 1005.20 1004.92 1004.72 1004.60 1004.60 1004.69 1004.89 1005.16 1005.48 1005.81 1006.14 1006.43 1006.69 1006.91 1007.11 1007.32 1007.56 1007.83 1008.16 1008.52 1008.91 1009.30 1009.66 1009.97 1010.21 1010.39 1010.51 1010.59
1012.33 1011.83 1011.27 1010.64 1009.98 1009.31 1008.67 1008.06 1007.50 1006.99 1006.54 1006.12 1005.74 1005.39 1005.06 1004.78 1004.55 1004.39 1004.32 1004.36 1004.50 1004.73 1005.03 1005.36 1005.70 1006.02 1006.30 1006.54 1006.73 1006.91 1007.08 1007.28 1007.53 1007.82 1008.16 1008.53 1008.91 1009.27 1009.59 1009.85 1010.06 1010.21 1010.34
1012.01 1011.47 1010.86 1010.20 1009.52 1008.84 1008.19 1007.60 1007.06 1006.58 1006.15 1005.77 1005.43 1005.11 1004.83 1004.58 1004.39 1004.27 1004.23 1004.30 1004.46 1004.71 1005.01 1005.34 1005.68 1005.98 1006.24 1006.45 1006.62 1006.76 1006.90 1007.06 1007.26 1007.52 1007.81 1008.15 1008.50 1008.84 1009.15 1009.42 1009.65 1009.84 1010.01
1011.68 1011.11 1010.49 1009.83 1009.15 1008.50 1007.88 1007.32 1006.82 1006.39 1006.01 1005.67 1005.36 1005.08 1004.83 1004.61 1004.45 1004.35 1004.33 1004.40 1004.56 1004.80 1005.10 1005.41 1005.73 1006.01 1006.25 1006.44 1006.58 1006.70 1006.81 1006.94 1007.10 1007.31 1007.56 1007.84 1008.14 1008.44 1008.73 1008.99 1009.23 1009.45 1009.66
1011.35 1010.78 1010.17 1009.53 1008.90 1008.29 1007.74 1007.24 1006.80 1006.43 1006.10 1005.80 1005.53 1005.28 1005.05 1004.85 1004.69 1004.59 1004.57 1004.63 1004.78 1004.99 1005.26 1005.55 1005.83 1006.10 1006.32 1006.49 1006.63 1006.73 1006.83 1006.93 1007.06 1007.23 1007.43 1007.66 1007.91 1008.16 1008.41 1008.65 1008.87 1009.09 1009.32
1011.06 1010.50 1009.92 1009.33 1008.76 1008.22 1007.74 1007.32 1006.95 1006.64 1006.36 1006.11 1005.88 1005.65 1005.44 1005.24 1005.08 1004.97 1004.92 1004.96 1005.07 1005.24 1005.47 1005.72 1005.97 1006.21 1006.42 1006.59 1006.72 1006.83 1006.93 1007.02 1007.14 1007.27 1007.43 1007.61 1007.81 1008.00 1008.20 1008.39 1008.59 1008.79 1009.01
1010.82 1010.28 1009.74 1009.20 1008.70 1008.24 1007.84 1007.49 1007.20 1006.95 1006.73 1006.52 1006.31 1006.11 1005.90 1005.71 1005.54 1005.41 1005.34 1005.33 1005.40 1005.53 1005.70 1005.91 1006.13 1006.34 1006.53 1006.70 1006.83 1006.95 1007.05 1007.15 1007.26 1007.37 1007.50 1007.64 1007.78 1007.92 1008.06 1008.20 1008.35 1008.52 1008.72
1010.63 1010.12 1009.61 1009.13 1008.69 1008.31 1007.98 1007.70 1007.47 1007.28 1007.10 1006.92 1006.75 1006.56 1006.36 1006.17 1005.99 1005.85 1005.75 1005.71 1005.73 1005.81 1005.93 1006.09 1006.27 1006.44 1006.61 1006.76 1006.90 1007.02 1007.12 1007.22 1007.32 1007.42 1007.52 1007.62 1007.71 1007.80 1007.89 1007.99 1008.10 1008.23 1008.40
1010.49 1009.99 1009.52 1009.08 1008.70 1008.37 1008.10 1007.88 1007.70 1007.54 1007.40 1007.25 1007.09 1006.92 1006.73 1006.55 1006.37 1006.22 1006.11 1006.04 1006.02 1006.06 1006.13 1006.23 1006.35 1006.49 1006.61 1006.74 1006.85 1006.95 1007.04 1007.13 1007.21 1007.29 1007.36 1007.43 1007.49 1007.54 1007.60 1007.66 1007.73 1007.84 1007.98
1010.38 1009.89 1009.44 1009.04 1008.69 1008.40 1008.16 1007.98 1007.82 1007.69 1007.56 1007.43 1007.29 1007.13 1006.96 1006.79 1006.63 1006.48 1006.36 1006.27 1006.23 1006.22 1006.24 1006.29 1006.35 1006.42 1006.49 1006.55 1006.62 1006.67 1006.73 1006.78 1006.83 1006.88 1006.92 1006.96 1007.00 1007.03 1007.07 1007.12 1007.19 1007.29 1007.43
1010.28 1009.80 1009.36 1008.98 1008.65 1008.39 1008.17 1008.00 1007.85 1007.72 1007.60 1007.47 1007.33 1007.18 1007.02 1006.86 1006.71 1006.58 1006.46 1006.37 1006.30 1006.26 1006.24 1006.23 1006.22 1006.21 1006.21 1006.19 1006.18 1006.17 1006.16 1006.15 1006.15 1006.15 1006.16 1006.18 1006.20 1006.23 1006.28 1006.34 1006.43 1006.56 1006.73
1010.17 1009.70 1009.28 1008.91 1008.60 1008.35 1008.13 1007.95 1007.80 1007.65 1007.51 1007.37 1007.22 1007.07 1006.92 1006.77 1006.63 1006.51 1006.40 1006.31 1006.23 1006.16 1006.10 1006.03 1005.95 1005.87 1005.77 1005.67 1005.56 1005.46 1005.36 1005.27 1005.21 1005.16 1005.13 1005.13 1005.14 1005.19 1005.26 1005.37 1005.51 1005.69 1005.92
1010.05 1009.60 1009.20 1008.85 1008.55 1008.30 1008.08 1007.88 1007.70 1007.53 1007.36 1007.19 1007.01 1006.84 1006.68 1006.54 1006.40 1006.29 1006.19 1006.10 1006.01 1005.93 1005.83 1005.71 1005.57 1005.41 1005.22 1005.03 1004.82 1004.62 1004.43 1004.26 1004.12 1004.01 1003.94 1003.92 1003.94 1004.01 1004.13 1004.29 1004.50 1004.76 1005.06
1009.90 1009.49 1009.12 1008.80 1008.52 1008.27 1008.04 1007.83 1007.62 1007.41 1007.19 1006.98 1006.77 1006.57 1006.38 1006.22 1006.08 1005.97 1005.87 1005.78 1005.69 1005.59 1005.47 1005.32 1005.13 1004.90 1004.65 1004.36 1004.07 1003.78 1003.50 1003.24 1003.03 1002.87 1002.77 1002.73 1002.76 1002.86 1003.02 1003.24 1003.53 1003.86 1004.24
1009.75 1009.38 1009.06 1008.77 1008.51 1008.27 1008.04 1007.81 1007.57 1007.32 1007.06 1006.79 1006.54 1006.30 1006.08 1005.89 1005.74 1005.62 1005.52 1005.43 1005.34 1005.24 1005.11 1004.93 1004.71 1004.45 1004.14 1003.80 1003.43 1003.07 1002.71 1002.39 1002.12 1001.91 1001.78 1001.73 1001.76 1001.88 1002.08 1002.36 1002.70 1003.10 1003.54
1009.59 1009.27 1009.00 1008.75 1008.53 1008.31 1008.08 1007.83 1007.57 1007.29 1006.99 1006.68 1006.38 1006.10 1005.85 1005.63 1005.46 1005.33 1005.22 1005.14 1005.05 1004.95 1004.82 1004.64 1004.41 1004.13 1003.80 1003.42 1003.02 1002.61 1002.20 1001.84 1001.52 1001.27 1001.11 1001.04 1001.07 1001.20 1001.42 1001.73 1002.11 1002.54 1003.03
1009.44 1009.18 1008.95 1008.75 1008.55 1008.36 1008.14 1007.90 1007.62 1007.32 1006.99 1006.66 1006.33 1006.02 1005.74 1005.51 1005.32 1005.17 1005.07 1004.98 1004.91 1004.82 1004.70 1004.53 1004.31 1004.04 1003.70 1003.31 1002.90 1002.46 1002.03 1001.63 1001.28 1001.01 1000.82 1000.73 1000.74 1000.86 1001.08 1001.39 1001.78 1002.22 1002.70
1009.31 1009.10 1008.91 1008.75 1008.58 1008.40 1008.20 1007.97 1007.70 1007.40 1007.08 1006.74 1006.40 1006.08 1005.80 1005.56 1005.36 1005.22 1005.11 1005.04 1004.97 1004.89 1004.79 1004.64 1004.44 1004.18 1003.85 1003.48 1003.06 1002.62 1002.17 1001.76 1001.38 1001.08 1000.86 1000.74 1000.73 1000.82 1001.02 1001.30 1001.66 1002.08 1002.54
1009.24 1009.05 1008.89 1008.74 1008.60 1008.44 1008.26 1008.05 1007.80 1007.52 1007.22 1006.90 1006.58 1006.28 1006.01 1005.79 1005.61 1005.47 1005.38 1005.31 1005.25 1005.19 1005.10 1004.96 1004.78 1004.53 1004.22 1003.85 1003.43 1002.99 1002.54 1002.10 1001.71 1001.38 1001.13 1000.98 1000.92 1000.98 1001.13 1001.37 1001.69 1002.07 1002.48
1009.23 1009.06 1008.90 1008.76 1008.62 1008.48 1008.31 1008.12 1007.91 1007.67 1007.40 1007.13 1006.86 1006.61 1006.38 1006.19 1006.03 1005.92 1005.84 1005.78 1005.73 1005.67 1005.58 1005.45 1005.27 1005.02 1004.71 1004.33 1003.91 1003.46 1003.00 1002.54 1002.13 1001.76 1001.48 1001.28 1001.19 1001.20 1001.31 1001.50 1001.78 1002.11 1002.48
Thickness
5626 5622 5619 5616 5613 5611 5608 5606 5605 5604 5604 5605 5606 5607 5609 5612 5615 5618 5621 5625 5628 5632 5637 5642 5646 5649 5652 5656 5660 5664 5668 5671 5672 5678 5686 5693 5697 5700 5703 5705 5708 5709 5711
5618 5614 5610 5607 5603 5600 5597 5595 5593 5592 5592 5592 5593 5594 5596 5599 5602 5605 5608 5613 5616 5620 5625 5630 5635 5639 5642 5647 5651 5655 5659 5664 5667 5670 5676 5682 5687 5692 5695 5696 5699 5701 5704
5610 5606 5601 5597 5593 5590 5587 5585 5583 5581 5580 5580 5580 5580 5582 5585 5587 5591 5595 5600 5604 5608 5613 5618 5623 5628 5632 5636 5641 5645 5650 5656 5660 5663 5667 5673 5678 5682 5684 5688 5690 5693 5696
5603 5598 5593 5589 5584 5581 5577 5575 5572 5570 5569 5569 5569 5569 5570 5572 5574 5577 5581 5586 5590 5595 5601 5606 5611 5617 5622 5626 5630 5635 5640 5645 5651 5655 5658 5663 5668 5672 5675 5677 5679 5683 5687
5596 5591 5586 5582 5577 5573 5569 5566 5563 5561 5560 5559 5558 5558 5559 5560 5563 5565 5568 5573 5577 5582 5587 5593 5600 5606 5612 5616 5621 5624 5630 5634 5639 5644 5648 5653 5657 5661 5665 5669 5671 5673 5677
5590 5585 5580 5575 5571 5566 5562 5558 5555 5552 5551 5549 5549 5548 5549 5552 5554 5555 5557 5560 5564 5569 5574 5579 5586 5593 5600 5606 5611 5615 5621 5624 5629 5634 5638 5643 5650 5655 5659 5661 5663 5665 5668
5585 5580 5575 5570 5565 5560 5557 5552 5548 5545 5543 5541 5541 5540 5540 5541 5543 5544 5546 5548 5552 5556 5561 5567 5574 5581 5587 5592 5598 5604 5610 5616 5622 5626 5629 5636 5642 5648 5652 5654 5657 5660 5664
5580 5575 5570 5565 5560 5556 5551 5547 5543 5540 5537 5535 5535 5534 5533 5534 5535 5537 5538 5539 5542 5546 5551 5556 5561 5567 5573 5579 5584 5590 5595 5603 5610 5616 5622 5628 5634 5639 5644 5649 5652 5653 5656
5577 5571 5567 5562 5557 5552 5548 5544 5541 5537 5534 5532 5530 5529 5528 5529 5530 5531 5531 5531 5534 5538 5543 5548 5552 5556 5563 5569 5573 5577 5583 5589 5597 5605 5612 5618 5624 5630 5635 5638 5641 5643 5645
5574 5569 5564 5559 5554 5550 5546 5542 5539 5535 5532 5530 5528 5527 5526 5526 5527 5527 5527 5527 5529 5532 5536 5541 5546 5549 5553 5557 5562 5566 5571 5578 5586 5593 5598 5605 5612 5619 5625 5631 5635 5636 5638
5572 5567 5563 5558 5553 5550 5545 5541 5538 5534 5532 5529 5527 5525 5524 5524 5525 5525 5525 5524 5526 5528 5531 5534 5538 5543 5546 5549 5553 5557 5563 5568 5574 5580 5586 5593 5600 5607 5615 5622 5628 5632 5633
5571 5566 5562 5558 5554 5551 5545 5541 5537 5533 5530 5527 5525 5523 5522 5522 5522 5522 5523 5523 5524 5525 5527 5530 5533 5537 5540 5542 5545 5550 5554 5558 5562 5568 5575 5582 5589 5597 5605 5612 5619 5625 5630
5569 5564 5560 5557 5553 5549 5544 5540 5536 5532 5528 5525 5523 5521 5520 5519 5519 5520 5521 5521 5523 5523 5524 5527 5530 5532 5534 5536 5540 5543 5546 5548 5552 5557 5564 5571 5580 5588 5596 5602 5608 5614 5619
5568 5564 5560 5556 5552 5549 5544 5540 5535 5531 5527 5524 5521 5519 5518 5517 5516 5516 5517 5518 5519 5520 5520 5522 5525 5527 5528 5531 5533 5535 5539 5542 5547 5551 5557 5563 5570 5577 5585 5592 5597 5603 5607
5568 5563 5559 5555 5551 5548 5545 5540 5536 5532 5527 5523 5521 5518 5517 5516 5515 5515 5515 5516 5516 5517 5517 5518 5519 5520 5522 5524 5527 5529 5533 5536 5540 5545 5550 5556 5562 5569 5577 5584 5590 5595 5599
5568 5563 5559 5556 5552 5549 5545 5542 5540 5535 5532 5528 5524 5520 5518 5517 5516 5515 5515 5515 5515 5516 5516 5516 5517 5519 5520 5522 5525 5527 5530 5533 5537 5540 5545 5551 5557 5563 5569 5576 5582 5587 5592
5568 5564 5560 5557 5553 5550 5547 5542 5540 5538 5536 5532 5528 5524 5522 5520 5518 5517 5516 5515 5515 5515 5515 5516 5518 5519 5520 5522 5524 5526 5529 5533 5535 5538 5542 5546 5552 5557 5563 5569 5575 5580 5584
5570 5567 5563 5559 5555 5552 5549 5545 5542 5538 5536 5534 5533 5530 5526 5524 5522 5519 5517 5516 5517 5517 5517 5518 5520 5521 5522 5523 5525 5527 5529 5531 5534 5537 5540 5544 5548 5553 5558 5564 5570 5575 5579
5571 5568 5564 5561 5558 5554 5551 5548 5545 5543 5539 5537 5535 5533 5531 5529 5526 5523 5520 5518 5519 5519 5520 5521 5522 5523 5524 5525 5527 5528 5529 5531 5533 5536 5540 5543 5546 5550 5555 5560 5565 5570 5574
5572 5571 5568 5563 5560 5557 5554 5551 5548 5545 5543 5540 5538 5536 5534 5532 5530 5528 5525 5523 5522 5522 5523 5524 5525 5526 5527 5528 5529 5529 5530 5531 5533 5535 5538 5541 5545 5548 5553 5558 5562 5566 5571
5572 5570 5570 5565 5561 5558 5555 5553 5551 5548 5546 5544 5542 5541 5538 5535 5534 5533 5532 5530 5528 5527 5527 5528 5528 5528 5529 5530 5531 5531 5532 5532 5534 5535 5538 5540 5544 5546 5550 5554 5558 5563 5567
5572 5570 5569 5566 5563 5560 5558 5555 5553 5551 5548 5547 5545 5544 5542 5540 5538 5537 5536 5535 5534 5533 5532 5531 5531 5531 5532 5532 5533 5533 5533 5533 5535 5537 5539 5541 5543 5546 5548 5551 5555 5559 5563
5573 5571 5569 5567 5565 5563 5560 5557 5555 5552 5550 5549 5547 5545 5544 5542 5541 5540 5539 5538 5537 5536 5535 5534 5534 5534 5534 5535 5535 5536 5536 5536 5537 5538 5540 5541 5543 5545 5548 5551 5555 5557 5560
5573 5571 5569 5566 5565 5562 5560 5558 5556 5554 5553 5551 5549 5547 5545 5544 5542 5541 5540 5539 5538 5536 5536 5535 5536 5536 5537 5537 5537 5537 5538 5539 5539 5540 5541 5543 5545 5546 5549 5551 5554 5557 5559
5572 5570 5567 5565 5563 5561 5559 5557 5555 5554 5554 5552 5550 5549 5547 5546 5544 5543 5541 5540 5539 5538 5536 5536 5536 5537 5537 5538 5539 5539 5540 5541 5542 5542 5543 5544 5546 5548 5549 5552 5554 5556 5558
5571 5568 5566 5563 5562 5560 5558 5556 5555 5554 5553 5552 5550 5549 5548 5546 5545 5544 5543 5541 5539 5538 5537 5536 5536 5537 5538 5539 5540 5541 5542 5543 5543 5544 5545 5546 5547 5548 5549 5551 5553 5556 5558